| time (UTC) | temp F | wind direction | speed knots | gust knots | rain 1hr in | rain 24hr in | rain mn in | humidity % | barometer mb |
| 20260505124518 | 60 | 94 | 0.0 | 1.7 | 0.00 | 0.33 | 0.33 | 98 | 971.1 |
| 20260505123015 | 59 | 87 | 0.0 | 0.9 | 0.00 | 0.33 | 0.33 | 98 | 970.9 |
| 20260505121516 | 59 | 32 | 0.0 | 1.7 | 0.00 | 0.33 | 0.33 | 98 | 970.8 |
| 20260505120014 | 59 | 28 | 0.0 | 4.3 | 0.00 | 0.33 | 0.33 | 97 | 970.6 |
| 20260505114513 | 59 | 321 | 0.0 | 7.0 | 0.00 | 0.33 | 0.33 | 98 | 970.5 |
| 20260505113012 | 59 | 13 | 0.0 | 0.0 | 0.00 | 0.33 | 0.33 | 97 | 969.9 |
| 20260505111511 | 59 | 323 | 0.0 | 3.5 | 0.01 | 0.33 | 0.33 | 97 | 969.8 |
| 20260505101506 | 60 | 243 | 0.9 | 3.5 | 0.03 | 0.32 | 0.32 | 97 | 970.3 |
| 20260505100006 | 60 | 172 | 1.7 | 5.2 | 0.08 | 0.32 | 0.32 | 97 | 969.8 |
| 20260505094502 | 60 | 169 | 2.6 | 4.3 | 0.12 | 0.32 | 0.32 | 96 | 969.9 |
| 20260505093003 | 60 | 257 | 0.9 | 4.3 | 0.16 | 0.31 | 0.31 | 96 | 970.6 |
| 20260505091500 | 60 | 271 | 0.0 | 0.0 | 0.21 | 0.28 | 0.28 | 96 | 971.3 |
| 20260505084557 | 60 | 296 | 0.9 | 5.2 | 0.19 | 0.20 | 0.20 | 94 | 971.0 |
| 20260505083108 | 60 | 305 | 0.9 | 3.5 | 0.15 | 0.15 | 0.15 | 93 | 970.6 |
| 20260505081557 | 61 | 292 | 0.9 | 2.6 | 0.08 | 0.08 | 0.08 | 92 | 971.2 |
| 20260505080052 | 61 | 298 | 0.9 | 3.5 | 0.04 | 0.04 | 0.04 | 89 | 970.7 |
| 20260505074549 | 62 | 285 | 0.0 | 2.6 | 0.01 | 0.01 | 0.01 | 85 | 970.8 |
| 20260505073045 | 63 | 248 | 1.7 | 3.5 | 0.00 | 0.00 | 0.00 | 78 | 970.6 |
| 20260505071544 | 63 | 170 | 0.0 | 1.7 | 0.00 | 0.00 | 0.00 | 77 | 970.3 |
| 20260505070049 | 63 | 202 | 0.9 | 4.3 | 0.00 | 0.00 | 0.00 | 77 | 970.4 |
| 20260505064554 | 63 | 148 | 0.9 | 3.5 | 0.00 | 0.00 | 0.00 | 76 | 970.6 |
| 20260505063038 | 64 | 144 | 1.7 | 3.5 | 0.00 | 0.00 | 0.00 | 76 | 970.8 |
| 20260505061540 | 64 | 131 | 0.0 | 2.6 | 0.00 | 0.00 | 0.00 | 75 | 971.2 |
| 20260505060035 | 64 | 212 | 0.0 | 2.6 | 0.00 | 0.00 | 0.00 | 75 | 971.4 |
| 20260505054533 | 64 | 190 | 0.9 | 3.5 | 0.00 | 0.00 | 0.00 | 75 | 971.1 |
| 20260505053032 | 64 | 141 | 1.7 | 3.5 | 0.00 | 0.00 | 0.00 | 75 | 970.9 |
| 20260505051529 | 65 | 144 | 0.0 | 2.6 | 0.00 | 0.00 | 0.00 | 74 | 971.1 |
| 20260505041530 | 67 | 197 | 0.0 | 6.1 | 0.00 | 0.00 | 0.00 | 70 | 971.7 |
| 20260505040022 | 67 | 159 | 1.7 | 7.0 | 0.00 | 0.00 | 0.00 | 69 | 971.7 |
| 20260505034521 | 67 | 155 | 0.9 | 7.0 | 0.00 | 0.00 | 0.00 | 68 | 971.9 |
| 20260505033020 | 68 | 146 | 0.9 | 3.5 | 0.00 | 0.00 | 0.00 | 67 | 972.1 |
| 20260505031517 | 68 | 160 | 1.7 | 6.1 | 0.00 | 0.00 | 0.00 | 67 | 972.0 |
| 20260505030014 | 68 | 171 | 0.9 | 3.5 | 0.00 | 0.00 | 0.00 | 66 | 971.9 |
| 20260505024532 | 69 | 222 | 1.7 | 4.3 | 0.00 | 0.00 | 0.00 | 66 | 971.8 |
| 20260505023012 | 69 | 215 | 1.7 | 5.2 | 0.00 | 0.00 | 0.00 | 65 | 971.6 |
| 20260505021512 | 70 | 242 | 0.0 | 4.3 | 0.00 | 0.00 | 0.00 | 64 | 971.4 |
| 20260505020011 | 71 | 225 | 0.9 | 3.5 | 0.00 | 0.00 | 0.00 | 62 | 971.1 |
| 20260505014512 | 71 | 165 | 0.9 | 2.6 | 0.00 | 0.00 | 0.00 | 61 | 970.9 |
| 20260505013018 | 72 | 231 | 0.9 | 2.6 | 0.00 | 0.00 | 0.00 | 60 | 970.7 |
| 20260505011509 | 72 | 252 | 0.9 | 2.6 | 0.00 | 0.00 | 0.00 | 59 | 970.5 |
| 20260505010009 | 73 | 219 | 1.7 | 4.3 | 0.00 | 0.00 | 0.00 | 58 | 970.3 |
| 20260505004507 | 74 | 230 | 1.7 | 7.0 | 0.00 | 0.00 | 0.00 | 57 | 970.0 |
| 20260505003008 | 75 | 161 | 0.9 | 4.3 | 0.00 | 0.00 | 0.00 | 56 | 970.0 |
| 20260505001507 | 75 | 213 | 1.7 | 6.1 | 0.00 | 0.00 | 0.00 | 55 | 969.9 |
| 20260505000013 | 76 | 221 | 2.6 | 7.8 | 0.00 | 0.00 | 0.00 | 53 | 969.8 |
| 20260504234507 | 76 | 267 | 5.2 | 12.2 | 0.00 | 0.00 | 0.00 | 52 | 969.7 |
| 20260504233004 | 77 | 200 | 5.2 | 11.3 | 0.00 | 0.00 | 0.00 | 52 | 970.0 |
| 20260504231508 | 77 | 210 | 3.5 | 14.8 | 0.00 | 0.00 | 0.00 | 51 | 970.2 |
| 20260504230001 | 78 | 205 | 7.0 | 12.2 | 0.00 | 0.00 | 0.00 | 49 | 970.1 |
| 20260504224603 | 78 | 227 | 5.2 | 18.2 | 0.00 | 0.00 | 0.00 | 48 | 970.2 |
| 20260504223059 | 79 | 223 | 8.7 | 16.5 | 0.00 | 0.00 | 0.00 | 47 | 970.3 |
| 20260504221608 | 79 | 284 | 7.8 | 15.6 | 0.00 | 0.00 | 0.00 | 46 | 970.3 |
| 20260504220058 | 80 | 227 | 8.7 | 13.9 | 0.00 | 0.00 | 0.00 | 46 | 970.3 |
| 20260504214558 | 80 | 197 | 7.0 | 13.9 | 0.00 | 0.00 | 0.00 | 45 | 970.3 |
| 20260504213055 | 80 | 207 | 4.3 | 13.9 | 0.00 | 0.00 | 0.00 | 47 | 970.4 |
| 20260504211554 | 80 | 205 | 7.0 | 19.1 | 0.00 | 0.00 | 0.00 | 45 | 970.5 |
| 20260504210106 | 80 | 196 | 4.3 | 17.4 | 0.00 | 0.00 | 0.00 | 46 | 970.6 |
| 20260504204600 | 80 | 231 | 7.8 | 17.4 | 0.00 | 0.00 | 0.00 | 45 | 970.8 |
| 20260504203050 | 80 | 232 | 10.4 | 20.9 | 0.00 | 0.00 | 0.00 | 45 | 970.9 |
| 20260504201550 | 80 | 197 | 11.3 | 19.1 | 0.00 | 0.00 | 0.00 | 46 | 971.1 |
| 20260504200047 | 79 | 258 | 9.6 | 19.1 | 0.00 | 0.00 | 0.00 | 46 | 971.2 |
| 20260504194601 | 79 | 247 | 11.3 | 18.2 | 0.00 | 0.00 | 0.00 | 46 | 971.3 |
| 20260504193041 | 79 | 165 | 7.8 | 20.0 | 0.00 | 0.00 | 0.00 | 48 | 971.6 |
| 20260504191547 | 79 | 220 | 5.2 | 20.0 | 0.00 | 0.00 | 0.00 | 49 | 971.8 |
| 20260504190050 | 78 | 261 | 9.6 | 20.0 | 0.00 | 0.00 | 0.00 | 47 | 971.8 |
| 20260504184540 | 78 | 147 | 8.7 | 18.2 | 0.00 | 0.00 | 0.00 | 48 | 971.8 |
| 20260504183034 | 78 | 227 | 9.6 | 15.6 | 0.00 | 0.00 | 0.00 | 48 | 972.1 |
| 20260504181539 | 78 | 291 | 7.0 | 21.7 | 0.00 | 0.00 | 0.00 | 49 | 972.1 |
| 20260504180045 | 77 | 265 | 7.8 | 18.2 | 0.00 | 0.00 | 0.00 | 49 | 972.2 |
| 20260504174530 | 77 | 272 | 8.7 | 17.4 | 0.00 | 0.00 | 0.00 | 49 | 972.3 |
| 20260504173032 | 77 | 280 | 7.8 | 20.9 | 0.00 | 0.00 | 0.00 | 49 | 972.3 |
| 20260504171527 | 77 | 259 | 6.1 | 16.5 | 0.00 | 0.00 | 0.00 | 49 | 972.5 |